time, Switch, Flow(0), Analog(2)
yyyy/mm/dd HH:MM:SS.fff, True=FILTERED|False=TOTAL, L/min, V
2023/07/11 13:00:03.788, True, 3.979, 0.123751
2023/07/11 13:00:04.284, True, 3.368, 0.124056
2023/07/11 13:00:04.788, True, 3.321, 0.124437
2023/07/11 13:00:05.284, True, 3.367, 0.123140
2023/07/11 13:00:05.788, True, 3.313, 0.122911
2023/07/11 13:00:06.292, True, 3.320, 0.124666
2023/07/11 13:00:06.788, True, 3.034, 0.125048
2023/07/11 13:00:07.292, True, 3.318, 0.125277
2023/07/11 13:00:07.796, True, 3.309, 0.123293
2023/07/11 13:00:08.291, True, 3.373, 0.123140
2023/07/11 13:00:08.795, True, 3.317, 0.122683
2023/07/11 13:00:09.300, True, 3.316, 0.121691
2023/07/11 13:00:09.796, True, 3.365, 0.124971
2023/07/11 13:00:10.299, True, 3.320, 0.123369
2023/07/11 13:00:10.804, True, 3.317, 0.125048
2023/07/11 13:00:11.300, True, 3.032, 0.124361
2023/07/11 13:00:11.804, True, 2.981, 0.121996
2023/07/11 13:00:12.307, True, 3.316, 0.122072
2023/07/11 13:00:12.804, True, 3.369, 0.122301
2023/07/11 13:00:13.308, True, 3.316, 0.121614
2023/07/11 13:00:13.811, True, 3.320, 0.122530
2023/07/11 13:00:14.316, True, 3.312, 0.123445
2023/07/11 13:00:14.812, True, 3.034, 0.124132
2023/07/11 13:00:15.316, True, 3.316, 0.122759
2023/07/11 13:00:15.820, True, 2.983, 0.123217
2023/07/11 13:00:16.316, True, 3.369, 0.123522
2023/07/11 13:00:16.820, True, 2.984, 0.124132
2023/07/11 13:00:17.324, True, 3.316, 0.121462
2023/07/11 13:00:17.820, True, 3.033, 0.123751
2023/07/11 13:00:18.324, True, 2.984, 0.125582
2023/07/11 13:00:18.828, True, 3.320, 0.124514
2023/07/11 13:00:19.324, True, 3.030, 0.123369
2023/07/11 13:00:19.828, True, 3.316, 0.125582
2023/07/11 13:00:20.331, True, 3.321, 0.122606
2023/07/11 13:00:20.828, True, 3.028, 0.123445
2023/07/11 13:00:21.332, True, 3.316, 0.125048
2023/07/11 13:00:21.836, True, 3.315, 0.122530
2023/07/11 13:00:22.332, True, 3.033, 0.122606
2023/07/11 13:00:22.836, True, 3.316, 0.125734
2023/07/11 13:00:23.340, True, 3.316, 0.122072
2023/07/11 13:00:23.836, True, 3.033, 0.126955
2023/07/11 13:00:24.340, True, 3.316, 0.124666
2023/07/11 13:00:24.844, True, 3.316, 0.126116
2023/07/11 13:00:25.340, True, 3.033, 0.124895
2023/07/11 13:00:25.844, True, 3.318, 0.126345
2023/07/11 13:00:26.348, True, 2.982, 0.124819
2023/07/11 13:00:26.844, True, 3.371, 0.124208
2023/07/11 13:00:27.347, True, 3.314, 0.124895
2023/07/11 13:00:27.852, True, 2.985, 0.127718
2023/07/11 13:00:28.348, True, 3.369, 0.128557
2023/07/11 13:00:28.852, True, 3.316, 0.130236
2023/07/11 13:00:29.356, True, 2.984, 0.127947
2023/07/11 13:00:29.852, True, 3.370, 0.128634
2023/07/11 13:00:30.356, True, 2.984, 0.131228
2023/07/11 13:00:30.860, True, 2.984, 0.128862
2023/07/11 13:00:31.356, True, 3.374, 0.128481
2023/07/11 13:00:31.859, True, 3.311, 0.131151
2023/07/11 13:00:32.364, True, 3.317, 0.130312
2023/07/11 13:00:32.860, True, 3.370, 0.129473
2023/07/11 13:00:33.364, True, 3.316, 0.128786
2023/07/11 13:00:33.867, True, 3.318, 0.131685
2023/07/11 13:00:34.364, True, 3.370, 0.129625
2023/07/11 13:00:34.868, True, 3.316, 0.128099
2023/07/11 13:00:35.372, True, 2.983, 0.130312
2023/07/11 13:00:35.867, True, 3.370, 0.130007
2023/07/11 13:00:36.372, True, 3.316, 0.130083
2023/07/11 13:00:36.876, True, 2.984, 0.131380
2023/07/11 13:00:37.372, True, 3.369, 0.130694
2023/07/11 13:00:37.876, True, 2.984, 0.131762
2023/07/11 13:00:38.380, True, 3.316, 0.131914
2023/07/11 13:00:38.876, True, 3.033, 0.130541
2023/07/11 13:00:39.380, True, 3.315, 0.129244
2023/07/11 13:00:39.884, True, 3.317, 0.131075
2023/07/11 13:00:40.379, True, 3.369, 0.131228
2023/07/11 13:00:40.883, True, 2.985, 0.130465
2023/07/11 13:00:41.388, True, 3.315, 0.130236
2023/07/11 13:00:41.884, True, 3.033, 0.131609
2023/07/11 13:00:42.388, True, 2.985, 0.128023
2023/07/11 13:00:42.884, True, 3.369, 0.128862
2023/07/11 13:00:43.388, True, 3.317, 0.132525
2023/07/11 13:00:43.892, True, 2.983, 0.130388
2023/07/11 13:00:44.387, True, 3.033, 0.132067
2023/07/11 13:00:44.891, True, 2.985, 0.132067
2023/07/11 13:00:45.396, True, 2.984, 0.131380
2023/07/11 13:00:45.892, True, 3.370, 0.131685
2023/07/11 13:00:46.396, True, 3.316, 0.129244
2023/07/11 13:00:46.900, True, 3.315, 0.129778
2023/07/11 13:00:47.396, True, 3.033, 0.130388
2023/07/11 13:00:47.900, True, 3.318, 0.131533
2023/07/11 13:00:48.404, True, 2.983, 0.130236
2023/07/11 13:00:48.900, True, 3.369, 0.129931
2023/07/11 13:00:49.404, True, 2.984, 0.131456
2023/07/11 13:00:49.908, True, 2.985, 0.130922
2023/07/11 13:00:50.404, True, 3.369, 0.130770
2023/07/11 13:00:50.908, True, 3.321, 0.133669
2023/07/11 13:00:51.412, True, 2.980, 0.130770
2023/07/11 13:00:51.908, True, 3.369, 0.133440
2023/07/11 13:00:52.412, True, 3.316, 0.131151
2023/07/11 13:00:52.908, True, 3.370, 0.129168
2023/07/11 13:00:53.412, True, 3.315, 0.129244
2023/07/11 13:00:53.916, True, 2.984, 0.129625
2023/07/11 13:00:54.420, True, 3.320, 0.132448
2023/07/11 13:00:54.915, True, 3.029, 0.130694
2023/07/11 13:00:55.420, True, 3.316, 0.128328
2023/07/11 13:00:55.924, True, 3.317, 0.130999
2023/07/11 13:00:56.420, True, 3.032, 0.130617
2023/07/11 13:00:56.924, True, 3.316, 0.130159
2023/07/11 13:00:57.420, True, 3.033, 0.127794
2023/07/11 13:00:57.924, True, 3.316, 0.129015
2023/07/11 13:00:58.428, True, 3.317, 0.131533
2023/07/11 13:00:58.932, True, 3.315, 0.130846
2023/07/11 13:00:59.428, True, 3.369, 0.130083
2023/07/11 13:00:59.932, True, 2.984, 0.131075
2023/07/11 13:01:00.436, True, 3.316, 0.130388
2023/07/11 13:01:00.932, True, 3.370, 0.129702
2023/07/11 13:01:01.436, True, 3.322, 0.130541
2023/07/11 13:01:01.932, True, 3.027, 0.131151
2023/07/11 13:01:02.436, True, 3.316, 0.128939
2023/07/11 13:01:02.940, True, 2.984, 0.130007
2023/07/11 13:01:03.436, True, 3.370, 0.130541
2023/07/11 13:01:03.940, True, 3.315, 0.128176
2023/07/11 13:01:04.444, True, 2.985, 0.130312
2023/07/11 13:01:04.940, True, 3.370, 0.130465
2023/07/11 13:01:05.444, True, 2.984, 0.131914
2023/07/11 13:01:05.948, True, 3.316, 0.129015
2023/07/11 13:01:06.444, True, 3.369, 0.129473
2023/07/11 13:01:06.948, True, 3.317, 0.130694
2023/07/11 13:01:07.452, True, 3.315, 0.130846
2023/07/11 13:01:07.948, True, 3.370, 0.130694
2023/07/11 13:01:08.452, True, 3.315, 0.130465
2023/07/11 13:01:08.956, True, 3.318, 0.128786
2023/07/11 13:01:09.452, True, 3.033, 0.129854
2023/07/11 13:01:09.955, True, 3.316, 0.130312
2023/07/11 13:01:10.451, True, 3.368, 0.129625
2023/07/11 13:01:10.955, True, 3.318, 0.130388
2023/07/11 13:01:11.459, True, 3.314, 0.128862
2023/07/11 13:01:11.964, True, 3.319, 0.130388
2023/07/11 13:01:12.460, True, 3.033, 0.128405
2023/07/11 13:01:12.963, True, 3.313, 0.127718
2023/07/11 13:01:13.468, True, 3.319, 0.129168
2023/07/11 13:01:13.964, True, 3.033, 0.129320
2023/07/11 13:01:14.468, True, 3.312, 0.129473
2023/07/11 13:01:14.972, True, 3.322, 0.129397
2023/07/11 13:01:15.468, True, 3.027, 0.128328
2023/07/11 13:01:15.971, True, 3.316, 0.129397
2023/07/11 13:01:16.475, True, 2.989, 0.129320
2023/07/11 13:01:16.972, True, 3.366, 0.128939
2023/07/11 13:01:17.476, True, 2.985, 0.130007
2023/07/11 13:01:17.980, True, 3.315, 0.129091
2023/07/11 13:01:18.476, True, 3.369, 0.127260
2023/07/11 13:01:18.980, True, 2.984, 0.130083
2023/07/11 13:01:19.484, True, 3.317, 0.129015
2023/07/11 13:01:19.980, True, 3.375, 0.128252
2023/07/11 13:01:20.484, True, 3.310, 0.129931
2023/07/11 13:01:20.988, True, 3.316, 0.129168
2023/07/11 13:01:21.484, True, 3.033, 0.128786
2023/07/11 13:01:21.987, True, 3.316, 0.126726
2023/07/11 13:01:22.492, True, 3.316, 0.128176
2023/07/11 13:01:22.988, True, 3.032, 0.127871
2023/07/11 13:01:23.492, True, 3.316, 0.128176
2023/07/11 13:01:23.996, True, 3.317, 0.128557
2023/07/11 13:01:24.492, True, 3.032, 0.129091
2023/07/11 13:01:24.996, True, 3.316, 0.128252
2023/07/11 13:01:25.500, True, 3.315, 0.129015
2023/07/11 13:01:25.995, True, 3.033, 0.127718
2023/07/11 13:01:26.499, True, 2.984, 0.126879
2023/07/11 13:01:27.004, True, 2.985, 0.127108
2023/07/11 13:01:27.499, True, 3.031, 0.128328
2023/07/11 13:01:28.003, True, 3.317, 0.129320
2023/07/11 13:01:28.507, True, 2.984, 0.130465
2023/07/11 13:01:29.003, True, 3.036, 0.128939
2023/07/11 13:01:29.508, True, 2.981, 0.129244
2023/07/11 13:01:30.011, True, 3.317, 0.129473
2023/07/11 13:01:30.507, True, 3.038, 0.128862
2023/07/11 13:01:31.012, True, 3.310, 0.127565
2023/07/11 13:01:31.515, True, 2.984, 0.128252
2023/07/11 13:01:32.011, True, 3.370, 0.130007
2023/07/11 13:01:32.516, True, 2.984, 0.127565
2023/07/11 13:01:33.020, True, 2.988, 0.129244
2023/07/11 13:01:33.515, True, 3.033, 0.127184
2023/07/11 13:01:34.019, True, 3.312, 0.129091
2023/07/11 13:01:34.516, True, 3.369, 0.128328
2023/07/11 13:01:35.019, True, 3.322, 0.127871
2023/07/11 13:01:35.523, True, 2.980, 0.129854
2023/07/11 13:01:36.020, True, 3.369, 0.129320
2023/07/11 13:01:36.524, True, 3.321, 0.127031
2023/07/11 13:01:37.028, True, 3.316, 0.128023
2023/07/11 13:01:37.523, True, 3.028, 0.126040
2023/07/11 13:01:38.028, True, 2.991, 0.127642
2023/07/11 13:01:38.532, True, 3.315, 0.126879
2023/07/11 13:01:39.036, True, 3.310, 0.127413
2023/07/11 13:01:39.532, True, 3.039, 0.126192
2023/07/11 13:01:40.036, True, 2.980, 0.128176
2023/07/11 13:01:40.540, True, 2.984, 0.128481
2023/07/11 13:01:41.036, True, 3.369, 0.128328
2023/07/11 13:01:41.539, True, 2.989, 0.127108
2023/07/11 13:01:42.044, True, 3.313, 0.128023
2023/07/11 13:01:42.540, True, 3.369, 0.127947
2023/07/11 13:01:43.044, True, 3.316, 0.128176
2023/07/11 13:01:43.547, True, 3.320, 0.128252
2023/07/11 13:01:44.052, True, 3.313, 0.130312
2023/07/11 13:01:44.548, True, 3.031, 0.128557
2023/07/11 13:01:45.052, True, 2.984, 0.126726
2023/07/11 13:01:45.547, True, 3.372, 0.128481
2023/07/11 13:01:46.051, True, 2.982, 0.126497
2023/07/11 13:01:46.556, True, 3.316, 0.126497
2023/07/11 13:01:47.052, True, 3.033, 0.126574
2023/07/11 13:01:47.556, True, 3.317, 0.128023
2023/07/11 13:01:48.059, True, 2.983, 0.128710
2023/07/11 13:01:48.556, True, 3.369, 0.127489
2023/07/11 13:01:49.060, True, 2.985, 0.126116
2023/07/11 13:01:49.556, True, 3.032, 0.126726
2023/07/11 13:01:50.059, True, 3.317, 0.126268
2023/07/11 13:01:50.564, True, 3.316, 0.127871
2023/07/11 13:01:51.060, True, 3.032, 0.127413
2023/07/11 13:01:51.564, True, 3.316, 0.128557
2023/07/11 13:01:52.068, True, 3.316, 0.128328
2023/07/11 13:01:52.563, True, 3.032, 0.125277
2023/07/11 13:01:53.068, True, 3.318, 0.127413
2023/07/11 13:01:53.572, True, 2.983, 0.128862
2023/07/11 13:01:54.076, True, 3.316, 0.126268
2023/07/11 13:01:54.572, True, 3.368, 0.127489
2023/07/11 13:01:55.076, True, 2.985, 0.128328
2023/07/11 13:01:55.580, True, 3.322, 0.127337
2023/07/11 13:01:56.076, True, 3.027, 0.128710
2023/07/11 13:01:56.580, True, 3.316, 0.126650
2023/07/11 13:01:57.084, True, 2.985, 0.127794
2023/07/11 13:01:57.580, True, 3.032, 0.126116
2023/07/11 13:01:58.084, True, 3.316, 0.127565
2023/07/11 13:01:58.580, True, 2.699, 0.125200
2023/07/11 13:01:59.084, True, 2.983, 0.126040
2023/07/11 13:01:59.587, True, 2.982, 0.125353
2023/07/11 13:02:00.084, True, 3.037, 0.128862
2023/07/11 13:02:00.587, True, 3.311, 0.128481
2023/07/11 13:02:01.092, True, 2.985, 0.125658
2023/07/11 13:02:01.587, True, 3.033, 0.126421
2023/07/11 13:02:02.092, True, 2.984, 0.127108
2023/07/11 13:02:02.596, True, 2.984, 0.127947
2023/07/11 13:02:03.092, True, 3.370, 0.126345
2023/07/11 13:02:03.596, True, 2.984, 0.129015
2023/07/11 13:02:04.100, True, 3.316, 0.126802
2023/07/11 13:02:04.596, True, 3.369, 0.126040
2023/07/11 13:02:05.100, True, 2.985, 0.128328
2023/07/11 13:02:05.604, True, 3.316, 0.125811
2023/07/11 13:02:06.100, True, 3.032, 0.126116
2023/07/11 13:02:06.604, True, 3.316, 0.127031
2023/07/11 13:02:07.108, True, 2.984, 0.126192
2023/07/11 13:02:07.604, True, 3.032, 0.127337
2023/07/11 13:02:08.107, True, 3.316, 0.125353
2023/07/11 13:02:08.611, True, 2.985, 0.126574
2023/07/11 13:02:09.108, True, 3.369, 0.126802
2023/07/11 13:02:09.612, True, 3.316, 0.126802
2023/07/11 13:02:10.115, True, 3.316, 0.127337
2023/07/11 13:02:10.612, True, 3.369, 0.126574
2023/07/11 13:02:11.116, True, 3.317, 0.125429
2023/07/11 13:02:11.612, True, 3.369, 0.125505
2023/07/11 13:02:12.116, True, 2.985, 0.127565
2023/07/11 13:02:12.620, True, 3.315, 0.126040
2023/07/11 13:02:13.116, True, 3.376, 0.127413
2023/07/11 13:02:13.620, True, 3.310, 0.126726
2023/07/11 13:02:14.124, True, 2.984, 0.127871
2023/07/11 13:02:14.620, True, 3.369, 0.124895
2023/07/11 13:02:15.123, True, 3.319, 0.129702
2023/07/11 13:02:15.628, True, 2.987, 0.126040
2023/07/11 13:02:16.132, True, 3.311, 0.128405
2023/07/11 13:02:16.628, True, 3.369, 0.125887
2023/07/11 13:02:17.132, True, 2.986, 0.126650
2023/07/11 13:02:17.635, True, 3.315, 0.127413
2023/07/11 13:02:18.132, True, 3.032, 0.125429
2023/07/11 13:02:18.636, True, 3.316, 0.127489
2023/07/11 13:02:19.140, True, 3.316, 0.126192
2023/07/11 13:02:19.644, True, 2.985, 0.126879
2023/07/11 13:02:20.140, True, 3.369, 0.126574
2023/07/11 13:02:20.644, True, 3.316, 0.127642
2023/07/11 13:02:21.139, True, 3.033, 0.125734
2023/07/11 13:02:21.644, True, 3.316, 0.125200
2023/07/11 13:02:22.148, True, 2.985, 0.125505
2023/07/11 13:02:22.651, True, 2.985, 0.125277
2023/07/11 13:02:23.148, True, 3.031, 0.126268
2023/07/11 13:02:23.652, True, 3.316, 0.124743
2023/07/11 13:02:24.156, True, 3.316, 0.125963
2023/07/11 13:02:24.652, True, 3.370, 0.125658
2023/07/11 13:02:25.156, True, 2.984, 0.126040
2023/07/11 13:02:25.660, True, 3.318, 0.124971
2023/07/11 13:02:26.156, True, 3.031, 0.127642
2023/07/11 13:02:26.660, True, 3.320, 0.127794
2023/07/11 13:02:27.164, True, 2.981, 0.126116
2023/07/11 13:02:27.660, True, 3.372, 0.127413
2023/07/11 13:02:28.164, True, 2.983, 0.126268
2023/07/11 13:02:28.668, True, 3.316, 0.126497
2023/07/11 13:02:29.164, True, 3.369, 0.129168
2023/07/11 13:02:29.667, True, 2.984, 0.122530
2023/07/11 13:02:30.172, True, 3.316, 0.125734
2023/07/11 13:02:30.676, True, 2.985, 0.123522
2023/07/11 13:02:31.172, True, 3.375, 0.125963
2023/07/11 13:02:31.676, True, 2.980, 0.126268
2023/07/11 13:02:32.180, True, 2.984, 0.126650
2023/07/11 13:02:32.675, True, 3.369, 0.125048
2023/07/11 13:02:33.180, True, 3.316, 0.125200
2023/07/11 13:02:33.684, True, 3.316, 0.124819
2023/07/11 13:02:34.180, True, 3.033, 0.125734
2023/07/11 13:02:34.684, True, 2.984, 0.126345
2023/07/11 13:02:35.188, True, 2.984, 0.124285
2023/07/11 13:02:35.692, True, 3.317, 0.125353
2023/07/11 13:02:36.188, True, 3.032, 0.123674
2023/07/11 13:02:36.692, True, 3.320, 0.124208
2023/07/11 13:02:37.188, True, 3.029, 0.126421
2023/07/11 13:02:37.692, True, 2.985, 0.125887
2023/07/11 13:02:38.196, True, 3.315, 0.126040
2023/07/11 13:02:38.691, True, 3.033, 0.124666
2023/07/11 13:02:39.196, True, 3.317, 0.124666
2023/07/11 13:02:39.700, True, 2.984, 0.125048
2023/07/11 13:02:40.196, True, 3.373, 0.125658
2023/07/11 13:02:40.700, True, 2.985, 0.125658
2023/07/11 13:02:41.204, True, 2.981, 0.125200
2023/07/11 13:02:41.699, True, 3.369, 0.125887
2023/07/11 13:02:42.204, True, 3.317, 0.127031
2023/07/11 13:02:42.708, True, 3.316, 0.126726
2023/07/11 13:02:43.204, True, 3.032, 0.126116
2023/07/11 13:02:43.708, True, 3.316, 0.125277
2023/07/11 13:02:44.212, True, 2.984, 0.127337
2023/07/11 13:02:44.708, True, 3.037, 0.122988
2023/07/11 13:02:45.212, True, 2.980, 0.125811
2023/07/11 13:02:45.715, True, 2.984, 0.124132
2023/07/11 13:02:46.212, True, 3.369, 0.125582
2023/07/11 13:02:46.716, True, 3.316, 0.124666
2023/07/11 13:02:47.220, True, 2.984, 0.125353
2023/07/11 13:02:47.724, True, 3.316, 0.125124
2023/07/11 13:02:48.220, True, 3.370, 0.124895
2023/07/11 13:02:48.724, True, 2.984, 0.125200
2023/07/11 13:02:49.220, True, 3.032, 0.125429
2023/07/11 13:02:49.724, True, 2.985, 0.123064
2023/07/11 13:02:50.228, True, 3.316, 0.125734
2023/07/11 13:02:50.724, True, 3.033, 0.125277
2023/07/11 13:02:51.228, True, 3.316, 0.124743
2023/07/11 13:02:51.732, True, 2.984, 0.125734
2023/07/11 13:02:52.227, True, 3.034, 0.125505
2023/07/11 13:02:52.732, True, 3.315, 0.125353
2023/07/11 13:02:53.236, True, 2.985, 0.123827
2023/07/11 13:02:53.739, True, 3.318, 0.126802
2023/07/11 13:02:54.236, True, 3.367, 0.124361
2023/07/11 13:02:54.740, True, 3.316, 0.125277
2023/07/11 13:02:55.243, True, 3.322, 0.125200
2023/07/11 13:02:55.740, True, 3.027, 0.125429
2023/07/11 13:02:56.244, True, 3.317, 0.127337
2023/07/11 13:02:56.748, True, 2.984, 0.125353
2023/07/11 13:02:57.243, True, 3.033, 0.124895
2023/07/11 13:02:57.748, True, 3.316, 0.125963
2023/07/11 13:02:58.251, True, 2.984, 0.123980
2023/07/11 13:02:58.748, True, 3.370, 0.123751
2023/07/11 13:02:59.251, True, 2.984, 0.125124
2023/07/11 13:02:59.756, True, 3.316, 0.127794
2023/07/11 13:03:00.251, True, 3.372, 0.124971
2023/07/11 13:03:00.756, True, 2.984, 0.127642
2023/07/11 13:03:01.260, True, 3.314, 0.124361
2023/07/11 13:03:01.756, True, 3.372, 0.126497
2023/07/11 13:03:02.259, True, 2.982, 0.123522
2023/07/11 13:03:02.763, True, 3.316, 0.125200
2023/07/11 13:03:03.267, True, 2.984, 0.124590
2023/07/11 13:03:03.763, True, 3.370, 0.125277
2023/07/11 13:03:04.267, True, 2.984, 0.124666
2023/07/11 13:03:04.772, True, 3.316, 0.125124
2023/07/11 13:03:05.268, True, 3.369, 0.124666
2023/07/11 13:03:05.772, True, 2.990, 0.124666
2023/07/11 13:03:06.276, True, 3.311, 0.123598
2023/07/11 13:03:06.772, True, 3.369, 0.124743
2023/07/11 13:03:07.276, True, 2.986, 0.123980
2023/07/11 13:03:07.779, True, 3.315, 0.124895
2023/07/11 13:03:08.276, True, 3.035, 0.124361
2023/07/11 13:03:08.780, True, 3.320, 0.126192
2023/07/11 13:03:09.284, True, 2.979, 0.126268
2023/07/11 13:03:09.780, True, 3.034, 0.125124
2023/07/11 13:03:10.284, True, 2.986, 0.125048
2023/07/11 13:03:10.788, True, 2.983, 0.126192
2023/07/11 13:03:11.284, True, 3.367, 0.124895
2023/07/11 13:03:11.788, True, 3.316, 0.123751
2023/07/11 13:03:12.292, True, 3.321, 0.124361
2023/07/11 13:03:12.788, True, 3.367, 0.126040
2023/07/11 13:03:13.291, True, 2.982, 0.125887
2023/07/11 13:03:13.787, True, 3.032, 0.125734
2023/07/11 13:03:14.292, True, 3.319, 0.123827
2023/07/11 13:03:14.796, True, 2.987, 0.125963
2023/07/11 13:03:15.292, True, 3.363, 0.126116
2023/07/11 13:03:15.796, True, 2.988, 0.124132
2023/07/11 13:03:16.300, True, 3.312, 0.124819
2023/07/11 13:03:16.804, True, 3.316, 0.125124
2023/07/11 13:03:17.300, True, 3.033, 0.125658
2023/07/11 13:03:17.804, True, 3.316, 0.124971
2023/07/11 13:03:18.308, True, 3.316, 0.123674
2023/07/11 13:03:18.804, True, 3.372, 0.124895
2023/07/11 13:03:19.308, True, 3.314, 0.123217
2023/07/11 13:03:19.812, True, 3.319, 0.124361
2023/07/11 13:03:20.308, True, 3.030, 0.123522
2023/07/11 13:03:20.812, True, 3.321, 0.126040
2023/07/11 13:03:21.316, True, 3.311, 0.125658
2023/07/11 13:03:21.812, True, 3.369, 0.126726
2023/07/11 13:03:22.315, True, 3.316, 0.121767
2023/07/11 13:03:22.820, True, 3.316, 0.124056
2023/07/11 13:03:23.316, True, 3.369, 0.125887
2023/07/11 13:03:23.820, True, 3.316, 0.123064
2023/07/11 13:03:24.324, True, 3.317, 0.124285
2023/07/11 13:03:24.820, True, 3.033, 0.126116
2023/07/11 13:03:25.324, True, 3.315, 0.125277
2023/07/11 13:03:25.828, True, 3.317, 0.124285
2023/07/11 13:03:26.324, True, 3.371, 0.124590
2023/07/11 13:03:26.827, True, 3.314, 0.124743
2023/07/11 13:03:27.332, True, 3.322, 0.126497
2023/07/11 13:03:27.828, True, 3.366, 0.124666
2023/07/11 13:03:28.332, True, 3.313, 0.127108
2023/07/11 13:03:28.828, True, 3.370, 0.124437
2023/07/11 13:03:29.332, True, 3.318, 0.126040
2023/07/11 13:03:29.835, True, 2.983, 0.124666
2023/07/11 13:03:30.332, True, 3.034, 0.125582
2023/07/11 13:03:30.836, True, 3.314, 0.124437
2023/07/11 13:03:31.340, True, 2.986, 0.123445
2023/07/11 13:03:31.835, True, 3.031, 0.122988
2023/07/11 13:03:32.340, True, 3.316, 0.124285
2023/07/11 13:03:32.844, True, 2.984, 0.123598
2023/07/11 13:03:33.340, True, 3.369, 0.123522
2023/07/11 13:03:33.843, True, 3.316, 0.123369
2023/07/11 13:03:34.340, True, 3.038, 0.124895
2023/07/11 13:03:34.843, True, 3.312, 0.124208
2023/07/11 13:03:35.348, True, 2.982, 0.126116
2023/07/11 13:03:35.844, True, 3.370, 0.125811
2023/07/11 13:03:36.348, True, 3.316, 0.124895
2023/07/11 13:03:36.851, True, 3.316, 0.126650
2023/07/11 13:03:37.355, True, 3.317, 0.123140
2023/07/11 13:03:37.852, True, 3.369, 0.126650
2023/07/11 13:03:38.356, True, 3.319, 0.124208
2023/07/11 13:03:38.860, True, 3.314, 0.125582
2023/07/11 13:03:39.356, True, 3.370, 0.124132
2023/07/11 13:03:39.860, True, 3.315, 0.124971
2023/07/11 13:03:40.364, True, 3.317, 0.123293
2023/07/11 13:03:40.860, True, 3.375, 0.124743
2023/07/11 13:03:41.364, True, 3.311, 0.124514
2023/07/11 13:03:41.860, True, 3.369, 0.124819
2023/07/11 13:03:42.364, True, 3.316, 0.122454
2023/07/11 13:03:42.868, True, 3.316, 0.123064
2023/07/11 13:03:43.364, True, 3.369, 0.126345
2023/07/11 13:03:43.868, True, 3.320, 0.125200
2023/07/11 13:03:44.372, True, 3.312, 0.123980
2023/07/11 13:03:44.868, True, 3.369, 0.127031
2023/07/11 13:03:45.372, True, 3.316, 0.124895
2023/07/11 13:03:45.876, True, 2.985, 0.124743
2023/07/11 13:03:46.372, True, 3.373, 0.123598
2023/07/11 13:03:46.876, True, 2.981, 0.123293
2023/07/11 13:03:47.380, True, 3.316, 0.123903
2023/07/11 13:03:47.875, True, 3.369, 0.123522
2023/07/11 13:03:48.380, True, 2.985, 0.122606
2023/07/11 13:03:48.884, True, 2.984, 0.123827
2023/07/11 13:03:49.380, True, 3.370, 0.126497
2023/07/11 13:03:49.884, True, 2.984, 0.124666
2023/07/11 13:03:50.388, True, 3.317, 0.125505
2023/07/11 13:03:50.884, True, 3.369, 0.124971
2023/07/11 13:03:51.388, True, 2.985, 0.124132
2023/07/11 13:03:51.892, True, 3.315, 0.124666
2023/07/11 13:03:52.388, True, 3.370, 0.125200
2023/07/11 13:03:52.892, True, 3.316, 0.124971
2023/07/11 13:03:53.396, True, 2.984, 0.125429
2023/07/11 13:03:53.892, True, 3.369, 0.124285
2023/07/11 13:03:54.396, True, 2.985, 0.124437
2023/07/11 13:03:54.900, True, 3.316, 0.125963
2023/07/11 13:03:55.396, True, 3.369, 0.125048
2023/07/11 13:03:55.900, True, 3.317, 0.123827
2023/07/11 13:03:56.404, True, 3.316, 0.124514
2023/07/11 13:03:56.899, True, 3.369, 0.123751
2023/07/11 13:03:57.403, True, 2.984, 0.124971
2023/07/11 13:03:57.908, True, 3.316, 0.122988
2023/07/11 13:03:58.404, True, 3.033, 0.122148
2023/07/11 13:03:58.908, True, 2.984, 0.124361
2023/07/11 13:03:59.412, True, 3.316, 0.124285
2023/07/11 13:03:59.908, True, 3.033, 0.123140
2023/07/11 13:04:00.412, True, 3.317, 0.125429
2023/07/11 13:04:00.916, True, 2.984, 0.123064
2023/07/11 13:04:01.420, True, 3.316, 0.123751
2023/07/11 13:04:01.916, True, 3.032, 0.124895
2023/07/11 13:04:02.420, True, 3.316, 0.124361
2023/07/11 13:04:02.924, True, 3.316, 0.123980
2023/07/11 13:04:03.420, True, 3.032, 0.124819
2023/07/11 13:04:03.924, True, 3.317, 0.121920
2023/07/11 13:04:04.428, True, 3.315, 0.123751
2023/07/11 13:04:04.924, True, 3.038, 0.125277
2023/07/11 13:04:05.428, True, 2.983, 0.123293
2023/07/11 13:04:05.932, True, 3.312, 0.125353
2023/07/11 13:04:06.428, True, 3.370, 0.125505
2023/07/11 13:04:06.932, True, 2.985, 0.124819
2023/07/11 13:04:07.436, True, 3.315, 0.124590
2023/07/11 13:04:07.932, True, 3.033, 0.124208
2023/07/11 13:04:08.436, True, 3.316, 0.124437
2023/07/11 13:04:08.939, True, 3.316, 0.123751
2023/07/11 13:04:09.436, True, 3.375, 0.125277
2023/07/11 13:04:09.940, True, 2.980, 0.123674
2023/07/11 13:04:10.444, True, 2.984, 0.123522
2023/07/11 13:04:10.940, True, 3.369, 0.121614
2023/07/11 13:04:11.444, True, 3.317, 0.124819
2023/07/11 13:04:11.948, True, 2.983, 0.122072
2023/07/11 13:04:12.444, True, 3.370, 0.123903
2023/07/11 13:04:12.947, True, 2.984, 0.124208